Date,TemperatureHighF,TemperatureAvgF,TemperatureLowF,DewpointHighF,DewpointAvgF,DewpointLowF,HumidityHigh,HumidityAvg,HumidityLow,PressureMaxIn,PressureMinIn,WindSpeedMaxMPH,WindSpeedAvgMPH,GustSpeedMaxMPH,PrecipitationSumIn
2013-3-1,30,24,17,17,13,7,85,65,46,30.25,30.13,12,1,15,0.01
2013-3-2,30,18,3,12,3,-100,85,57,24,30.28,30.14,10,1,13,0.00
2013-3-3,36,17,-2,11,-1,-100,86,58,20,30.15,30.02,2,0,0,0.00
2013-3-4,30,23,14,21,13,4,79,65,50,30.05,29.96,14,2,17,0.00
2013-3-5,28,25,23,28,20,-100,100,94,77,30.13,29.91,11,1,0,0.03
2013-3-6,31,24,11,23,4,-100,96,80,59,30.31,30.13,16,4,16,0.11
2013-3-7,36,22,0,22,-31,-100,93,68,46,30.38,30.26,3,0,0,0.01
2013-3-8,42,32,8,26,-35,-100,89,64,47,30.38,30.14,7,0,0,0.00
2013-3-9,38,34,30,37,-6,-100,98,82,78,30.15,29.74,12,3,17,0.04
2013-3-10,38,35,32,37,35,-100,100,100,47,29.80,29.61,10,1,14,0.25
2013-3-11,32,30,26,32,29,25,100,98,92,29.74,29.57,0,0,0,0.06
2013-3-12,28,25,20,26,19,-100,100,83,66,30.06,29.74,17,4,21,0.02
2013-3-13,30,22,14,17,10,7,88,64,38,30.29,30.06,18,6,20,0.02
2013-3-14,38,25,12,32,20,8,95,82,67,30.28,29.99,6,0,0,0.18
2013-3-15,35,30,24,34,30,22,100,98,89,29.99,29.77,11,1,0,0.11
2013-3-16,29,24,19,29,17,8,100,78,56,30.14,29.80,17,3,17,0.08
2013-3-17,28,19,6,14,8,-1,79,62,45,30.27,29.98,16,2,18,0.00
2013-3-18,32,21,15,30,18,8,100,87,74,29.98,29.53,26,4,28,0.10
2013-3-19,24,17,9,8,5,0,78,61,40,30.06,29.68,30,13,30,0.00
2013-3-20,19,11,4,4,-2,-100,72,54,42,30.10,30.04,27,9,27,0.00
2013-3-21,26,13,-2,10,2,-100,84,63,43,30.09,30.00,14,3,16,0.01
2013-3-22,38,21,2,16,8,-1,87,61,30,30.06,29.99,6,0,0,0.07
2013-3-23,42,28,13,21,15,-100,87,61,33,30.11,30.01,5,0,0,0.00
2013-3-24,33,30,28,26,22,19,83,70,60,30.04,29.83,13,1,16,0.00
2013-3-25,36,30,20,24,20,16,84,66,55,30.11,29.87,16,4,19,0.00
2013-3-26,40,32,25,25,19,-100,76,60,40,30.23,30.11,12,2,17,0.00
2013-3-27,43,34,24,25,20,15,73,58,35,30.28,30.22,12,1,13,0.00
2013-3-28,48,33,18,24,18,13,89,57,27,30.32,30.24,8,0,0,0.00
2013-3-29,52,36,18,27,21,12,98,60,27,30.29,30.13,5,0,0,0.00
2013-3-30,48,41,31,43,34,24,100,79,56,30.13,29.76,18,1,20,0.27
2013-3-31,40,35,28,39,29,11,100,80,39,29.93,29.69,28,8,28,0.00